View from above orbital plane
|
View from above satellite
|
Ground track
|
The orbit data is extracted from the following two-line orbital elements,
1 19046U 88032B 21015.53714169 .00000338 00000-0 29276-4 0 9990
2 19046 97.3901 33.0703 0036624 203.0046 156.9541 15.02823186768810
Epoch (UTC): | 15 January 2021 12:53:29 |
Eccentricity: | 0.0036624 |
inclination: | 97.3901° |
perigee height: | 533 km |
apogee height: | 583 km |
right ascension of ascending node: | 33.0703° |
argument of perigee: | 203.0046° |
revolutions per day: | 15.02823186 |
mean anomaly at epoch: | 156.9541° |
orbit number at epoch: | 76881 |
The dashed part of the orbit path shows where the satellite is in the earth's shadow,
|
|